Home   Weather   Södertälje   Past weeks

Flag for Sweden Past Weather in Södertälje, Sweden — Yesterday and Last 2 Weeks

Now
54 °F

Clear.


Feels Like: 53 °F
Forecast: 51 / 56 °F
Wind: 5 mph from Northeast

Location: Stockholm Bromma Airport

Current Time: Sep 21, 2017 at 9:38:11 pm

Latest Report: Sep 21, 2017 at 8:50 pm


Visibility: 10 mi

Pressure: 30.27 "Hg

Humidity: 94%

Dew Point: 52 °F

Location of SödertäljeLocation

Past Weather in Södertälje — Graph

°F

Södertälje Temperature Yesterday

Maximum temperature yesterday: 54 °F (at 12:20 pm)
Minimum temperature yesterday: 36 °F (at 5:50 am)
Average temperature yesterday: 49 °F

High & Low Weather Summary for the Past Weeks

 TemperatureHumidityPressure
High64 °F (Sep 10, 2:50 pm)100% (Sep 7, 4:50 am)30.27 "Hg (Sep 7, 4:50 am)
Low36 °F (Sep 20, 5:50 am)51% (Sep 7, 11:50 am)29.03 "Hg (Sep 14, 3:20 am)
Average54 °F83%29.63 "Hg
* Reported Sep 6 8:20 pm — Sep 21 8:20 pm, Södertälje. Weather by CustomWeather, © 2017

Note: Actual official high and low records may vary slightly from our data, if they occured in-between our weather recording intervals... More about our weather records

Advertising

Södertälje Weather History for the Previous 24 Hours

Scroll right to see more
 ConditionsComfort  
Time TempWeatherWind HumidityBarometerVisibility
8:20 pm
Thu, Sep 21
55 °FClear.5 mph88%30.27 "Hg10 mi
7:50 pm55 °FClear.6 mph82%30.27 "Hg10 mi
7:20 pm57 °FClear.10 mph77%30.27 "Hg10 mi
6:50 pm57 °FSunny.8 mph77%30.24 "Hg10 mi
6:20 pm59 °FSunny.8 mph72%30.24 "Hg10 mi
5:50 pm59 °FPassing clouds.9 mph68%30.24 "HgN/A
5:20 pm59 °FPassing clouds.8 mph63%30.24 "HgN/A
4:50 pm61 °FPassing clouds.12 mph59%30.21 "HgN/A
4:20 pm61 °FScattered clouds.10 mph68%30.21 "HgN/A
3:50 pm61 °FPassing clouds.7 mph72%30.21 "HgN/A
3:20 pm61 °FScattered clouds.8 mph63%30.21 "HgN/A
2:50 pm61 °FScattered clouds.7 mph68%30.21 "HgN/A
2:20 pm61 °FScattered clouds.7 mph68%30.21 "HgN/A
1:50 pm61 °FScattered clouds.9 mph63%30.21 "HgN/A
1:20 pm61 °FScattered clouds.9 mph68%30.21 "HgN/A
12:50 pm61 °FScattered clouds.12 mph68%30.21 "HgN/A
12:20 pm61 °FScattered clouds.12 mph68%30.18 "HgN/A
11:50 am59 °FScattered clouds.12 mph72%30.18 "HgN/A
11:20 am59 °FScattered clouds.10 mph77%30.18 "HgN/A
10:50 am59 °FScattered clouds.10 mph77%30.18 "HgN/A
10:20 am59 °FScattered clouds.12 mph82%30.18 "HgN/A
9:50 am57 °FScattered clouds.9 mph88%30.15 "HgN/A
8:50 am55 °FScattered clouds.5 mph94%30.15 "HgN/A
8:20 am55 °FScattered clouds.3 mph94%30.15 "HgN/A
7:50 am52 °FScattered clouds.3 mph100%30.12 "HgN/A
7:20 am52 °FBroken clouds.2 mph100%30.12 "HgN/A
6:50 am52 °FBroken clouds.1 mph100%30.12 "HgN/A
6:20 am50 °FPassing clouds.6 mph100%30.12 "HgN/A
5:50 am50 °FPartly cloudy.7 mph100%30.09 "HgN/A
5:20 am50 °FLow clouds.10 mph100%30.09 "HgN/A
4:50 am48 °FMostly cloudy.8 mph100%30.09 "HgN/A
4:20 am48 °FHeavy rain. Low clouds.7 mph94%30.09 "HgN/A
3:50 am46 °FRain. Low clouds.10 mph100%30.09 "HgN/A
3:20 am46 °FLight rain. Partly cloudy.12 mph100%30.09 "HgN/A
2:50 am46 °FRain. Mostly cloudy.10 mph100%30.09 "HgN/A
2:20 am46 °FRain. Mostly cloudy.9 mph100%30.09 "Hg4 mi
1:50 am46 °FHeavy rain. Partly cloudy.8 mph100%30.09 "Hg3 mi
1:20 am46 °FHeavy rain. Overcast.8 mph100%30.09 "HgN/A
12:50 am46 °FRain. Mostly cloudy.10 mph93%30.09 "HgN/A
12:20 am48 °FRain. Overcast.8 mph87%30.09 "HgN/A
11:50 pm
Wed, Sep 20
48 °FRain. Mostly cloudy.8 mph87%30.09 "HgN/A
11:20 pm48 °FLight rain. Mostly cloudy.7 mph87%30.09 "HgN/A
10:50 pm48 °FLight rain. Overcast.6 mph94%30.09 "HgN/A
10:20 pm48 °FRain. Overcast.5 mph87%30.09 "HgN/A
9:50 pm48 °FLight rain. Overcast.7 mph87%30.09 "HgN/A
9:20 pm50 °FLight rain. Passing clouds.7 mph82%30.09 "HgN/A
Weather by CustomWeather, © 2017

See weather overviewHow to use our weather pages